STARLINK-5348, 56515

Orbit data source: Space-Track

STARLINK-5348, 56515 is a payload satellite owned by SpaceX/Seattle (US) in LEO that was launched on Sun, 14 May 2023 UTC via an FALCON 9 launch vehicle from the Air Force Eastern Test Range (AFETR). Payload-class satellites include a variety of spacecraft equipped with specific instruments for various scientific and technological missions. These include communications satellites like Starlink; space stations such as the ISS; scientific satellites like the Hubble; Earth observation satellites from companies like Planet Labs, Umbra, and HawkEye 360; GPS; miniature CubeSats for education and research; and military/defense satellites.

Loading next visibility...
Identifier
56515, 2023-065N
Orbit
LEO
Country
Flag of USUS
Related business
Manufacturer
SpaceX/Seattle
Mission
Operational Commercial Communications
Bus & Motor
STARLINK, Unknown motor
Mass
305 kg wet, ~290 kg dry
Launch date (UTC)
2023-05-14 (3 years ago)
Launch vehicle
FALCON 9
Launch site
Air Force Eastern Test Range (AFETR)
Object type
Payload
Rocket body
Debris
Shape & HBR
Box + 1 Pan, 10.1 m
Radar Cross Section
11.087 m², Large (>1 m²)

Expand to show TLE details & history
Last TLE update: 4 days ago

TLE from 4 days ago
0 STARLINK-5348
1 56515U 23065N   26169.92948932 -.00000097  00000-0  60343-5 0  9996
2 56515  43.0087   0.6814 0002430 275.3752  84.6823 15.27579536172084
Epoch: 2026-06-18T22:18Z
TLE epoch observation values (Epoch: 2026-06-18T22:18:27.877Z)
Latitude
0.00003°
Longitude
118.89951°
Altitude
482.673 km
Speed
7.626 km/s
True Right ascension
00h 02m 43s
True Declination
0° 00' 00"
Sunlit
Object was in daylight at epoch
Visualization orbit readout
Latitude
Unknown
Longitude
Unknown
Altitude
Unknown
Speed
Unknown
Apparent Right ascension
Unknown
Apparent Declination
Unknown
Sunlit
N/A
Visualization observer readout
Local Sidereal Time
21:25:33
Azimuth
Unknown
Elevation
Unknown
Doppler factor
Unknown
Orbital elements
Apogee altitude
486.662 km
Perigee altitude
483.326 km
Semi-major axis
6,863.131 km
Eccentricity
0.00024
Inclination
43.0087°
RAAN
0.6814°
Arg. of periapsis
275.3752°
True anomaly
84.71003°
Mean anomaly
84.6823°
Eccentric anomaly
84.69616°
Mean motion
3.81733 °/min
Orbital period
94.31 mins
BSTAR
0.0000060343
Loading maneuver chart data...
Computing Atmospheric mass density...
Loading historical data...
Loading historical data...
Loading historical data...
Loading historical data...
Loading historical data...
Loading historical data...
Loading historical data...

Documentation

Showing up to 5 results
|